Location: Newark
(36.1358°N, 115.1208°W)
Time: 09:46:58
(UTC+00:00)

Vanguard 1 Rocket - Pass Details

Date: 18 February 2020
Orbit: 650 x 4226 km, 34.3° (Epoch: 07 April)

Event Time Altitude Azimuth Distance (km) Brightness Sun altitude
Rises 07:32:21 0° 199° (SSW) 6,070 - -65.1°
Reaches altitude 10° 07:40:26 10° 172° (S) 4,060 - -65.4°
Maximum altitude 07:43:31 12° 155° (SSE) 3,531 - -65.5°
Drops below altitude 10° 07:46:09 10° 136° (SE) 3,328 - -65.6°
Sets 07:50:51 0° 104° (ESE) 3,718 - -65.6°
